STARLINK-34335

Last updated on Thu Jul 03 2025 00:02:06 GMT+0000 (Coordinated Universal Time)

1 64362U 25126U 25183.58335648 -.01412179 00000+0 -17071-1 0 9991 2 64362 69.9997 310.1999 0003457 269.5039 326.0537 15.63227087 4323
UTC large
Height (km)
Speed (km/s)
/
Latitude / Longitude
Inclination (degrees)
Orbital Period (minutes)
Azimuth
Elevation
Range (km)
Doppler Factor

Next 0 passes for location: London (51.5072 / 0.1276)

Sorry there are no passes over London.